MDT,Max TemperatureF,Mean TemperatureF,Min TemperatureF,Max Dew PointF,MeanDew PointF,Min DewpointF,Max Humidity, Mean Humidity, Min Humidity, Max Sea Level PressureIn, Mean Sea Level PressureIn, Min Sea Level PressureIn, Max VisibilityMiles, Mean VisibilityMiles, Min VisibilityMiles, Max Wind SpeedMPH, Mean Wind SpeedMPH, Max Gust SpeedMPH,PrecipitationIn, CloudCover, Events, WindDirDegrees
2013-3-1,37,29,21,28,21,12,80,66,52,30.31,30.27,30.21,10,10,10,13,8,,0.00,4,,161
2013-3-2,53,40,26,34,27,19,86,66,44,30.29,30.21,30.03,10,10,10,10,2,,0.00,0,,160
2013-3-3,59,44,30,34,28,25,86,56,29,30.00,29.77,29.66,10,10,10,25,7,34,0.00,0,,325
2013-3-4,44,30,17,28,19,9,93,65,47,30.20,29.93,29.68,10,9,0,38,11,41,0.00,2,,16
2013-3-5,39,26,12,23,16,7,85,66,44,30.28,30.21,30.12,10,10,10,10,6,,0.00,0,,139
2013-3-6,51,35,19,32,24,16,86,68,43,30.12,29.98,29.85,10,10,10,14,4,,0.00,0,,76
2013-3-7,62,45,28,36,28,21,86,57,29,29.98,29.93,29.86,10,10,9,17,5,20,0.00,0,,84
2013-3-8,48,38,28,32,28,25,86,71,53,29.98,29.86,29.69,10,10,10,12,4,,0.00,0,,12
2013-3-9,37,30,24,32,24,12,93,72,52,30.09,29.83,29.64,10,7,0,31,13,40,0.05,5,,358
2013-3-10,50,38,26,27,19,12,80,52,30,30.12,30.07,29.98,10,10,10,32,16,38,0.00,1,,346
2013-3-11,57,42,28,28,24,19,93,64,25,30.16,29.99,29.90,10,9,1,30,6,34,0.02,3,,287
2013-3-12,35,29,23,28,24,19,100,81,70,30.32,30.25,30.17,10,10,4,14,8,16,0.02,6,,184
2013-3-13,62,43,24,36,29,21,100,65,32,30.27,30.23,30.18,10,8,3,12,3,,0.00,0,,147
2013-3-14,68,52,35,34,30,28,87,47,23,30.32,30.23,30.14,10,10,10,14,6,17,0.00,0,,136
2013-3-15,75,58,41,34,26,19,70,34,14,30.13,29.96,29.88,10,10,10,24,6,34,0.00,0,,315
2013-3-16,57,47,37,34,30,27,75,52,33,30.05,29.93,29.82,10,10,10,18,11,28,0.00,2,,93
2013-3-17,57,40,24,32,23,3,100,56,26,29.85,29.69,29.55,10,10,10,25,7,37,0.00,1,,330
2013-3-18,51,38,26,19,7,-2,48,27,17,29.93,29.89,29.84,10,10,10,28,12,39,0.00,1,,290
2013-3-19,53,38,24,18,7,-4,64,32,11,30.36,30.10,29.92,10,10,10,28,11,37,0.00,0,,338
2013-3-20,48,32,17,21,17,12,93,56,30,30.35,30.03,29.75,10,10,10,9,2,,0.00,0,,9
2013-3-21,53,40,28,34,19,0,75,48,16,29.82,29.67,29.57,10,10,8,29,9,33,0.00,2,,350
2013-3-22,42,32,23,28,18,7,93,61,36,29.93,29.81,29.72,10,8,1,21,12,26,0.00,4,,41
2013-3-23,26,20,14,21,15,7,100,80,54,30.16,30.04,29.91,10,5,0,24,13,29,0.00,6,,359
2013-3-24,24,15,6,18,10,0,100,77,54,30.21,30.11,30.07,10,10,1,20,4,25,0.00,4,,77
2013-3-25,30,20,10,18,12,9,92,72,51,30.25,30.21,30.18,10,10,10,15,7,,0.00,2,,152
2013-3-26,44,28,12,30,19,9,86,67,39,30.18,30.04,29.94,10,10,9,9,4,,0.00,2,,15
2013-3-27,51,42,32,37,33,28,93,76,54,30.11,30.07,30.01,10,10,10,13,4,,0.00,3,,112
2013-3-28,62,46,30,37,32,27,93,62,27,30.14,30.09,30.05,10,10,6,15,4,23,0.00,1,,167
2013-3-29,66,52,37,39,32,28,87,53,24,30.14,30.10,30.05,10,10,10,23,5,26,0.00,1,,314
2013-3-30,64,48,33,39,33,27,93,64,28,30.23,30.13,30.03,10,10,10,29,6,43,0.00,2,,242
2013-3-31,69,50,30,39,29,21,93,57,17,30.23,30.06,29.95,10,10,2,17,4,21,0.00,0,,77